#�ϑ�����,���ϕ���,���ϕ���,�ő啗��,�ő啗����������,�ő�u�ԕ���,�ő�u�ԕ�����������
#(�N����),(m/s)   ,(16����),(m/s)   ,(16����)        ,(m/s)       ,(16����)            
2017/8/8 0:01,3.6,15,3.8,16,4.1,14
2017/8/8 0:02,3.3,15,3.5,16,4.5,15
2017/8/8 0:03,3.2,15,3.3,16,2.9,14
2017/8/8 0:04,2.9,15,3.2,16,2.4,1
2017/8/8 0:05,2.8,15,2.9,15,3.8,13
2017/8/8 0:06,2.4,15,2.7,16,1.9,1
2017/8/8 0:07,2.3,15,2.4,16,2.7,16
2017/8/8 0:08,2.1,15,2.3,15,2.9,13
2017/8/8 0:09,2,15,2.1,15,3.1,13
2017/8/8 0:10,1.8,15,2,15,1.8,12
2017/8/8 0:11,1.6,15,1.7,15,1.4,15
2017/8/8 0:12,1.5,14,1.6,15,2.9,13
2017/8/8 0:13,1.4,14,1.5,15,2.7,16
2017/8/8 0:14,1.5,14,1.5,15,2.6,12
2017/8/8 0:15,1.6,13,1.6,15,6.1,10
2017/8/8 0:16,1.9,13,1.9,15,6.3,12
2017/8/8 0:17,2,13,2,15,4.1,14
2017/8/8 0:18,2,13,2,15,3.1,13
2017/8/8 0:19,2,13,2,15,3.8,10
2017/8/8 0:20,2.1,13,2.1,13,3.5,11
2017/8/8 0:21,2.2,13,2.2,13,3,16
2017/8/8 0:22,2.1,13,2.2,13,2.2,16
2017/8/8 0:23,2.1,13,2.1,13,2.6,16
2017/8/8 0:24,2.2,13,2.2,13,3.2,10
2017/8/8 0:25,2,14,2.2,13,3.2,11
2017/8/8 0:26,1.8,14,1.9,13,3.3,1
2017/8/8 0:27,1.7,14,1.8,13,3.1,16
2017/8/8 0:28,1.8,14,1.8,13,2.1,1
2017/8/8 0:29,1.7,15,1.8,13,2.6,16
2017/8/8 0:30,1.8,15,1.8,13,3.3,16
2017/8/8 0:31,1.7,15,1.8,13,2.2,15
2017/8/8 0:32,1.7,15,1.7,13,2,11
2017/8/8 0:33,1.7,15,1.7,13,2,10
2017/8/8 0:34,1.6,15,1.6,13,2.5,10
2017/8/8 0:35,1.6,15,1.6,14,2.4,16
2017/8/8 0:36,1.5,15,1.6,14,1.6,1
2017/8/8 0:37,1.4,15,1.5,14,1.8,16
2017/8/8 0:38,1.3,15,1.4,15,1.8,16
2017/8/8 0:39,1.2,14,1.3,15,1.9,14
2017/8/8 0:40,1.2,14,1.2,15,2,14
2017/8/8 0:41,1.2,13,1.2,15,2.2,12
2017/8/8 0:42,1.2,14,1.2,15,1.4,12
2017/8/8 0:43,1.2,14,1.2,15,1.5,12
2017/8/8 0:44,1.1,14,1.2,15,1,13
2017/8/8 0:45,1.1,14,1.1,15,2.6,13
2017/8/8 0:46,1.2,14,1.2,15,3.9,12
2017/8/8 0:47,1.2,13,1.2,15,2.6,15
2017/8/8 0:48,1.3,13,1.3,14,1.6,11
2017/8/8 0:49,1.3,12,1.3,13,2.2,9
2017/8/8 0:50,1.2,12,1.3,13,0.9,8
2017/8/8 0:51,1.1,12,1.2,13,2.5,4
2017/8/8 0:52,1.2,12,1.2,13,3.3,4
2017/8/8 0:53,1.3,12,1.3,13,3.7,14
2017/8/8 0:54,1.6,12,1.6,12,3.9,13
2017/8/8 0:55,1.7,11,1.7,12,3.2,10
2017/8/8 0:56,1.7,11,1.7,12,3.3,12
2017/8/8 0:57,1.8,11,1.8,11,3.1,12
2017/8/8 0:58,1.8,11,1.8,11,2.4,8
2017/8/8 0:59,1.8,12,1.8,11,2,8
2017/8/8 1:00,1.8,12,1.8,11,1.4,11
2017/8/8 1:01,1.9,12,1.9,12,2.2,12
2017/8/8 1:02,1.9,12,1.9,12,2.9,13
2017/8/8 1:03,1.9,12,1.9,12,2.7,12
2017/8/8 1:04,1.9,12,1.9,12,3.8,12
2017/8/8 1:05,1.9,12,1.9,12,3.6,12
2017/8/8 1:06,1.9,12,1.9,12,3.3,12
2017/8/8 1:07,1.9,12,1.9,12,3.3,10
2017/8/8 1:08,1.8,12,1.9,12,2.4,12
2017/8/8 1:09,1.9,12,1.9,12,2.2,16
2017/8/8 1:10,1.9,13,1.9,12,2.2,16
2017/8/8 1:11,1.8,13,1.9,12,2,16
2017/8/8 1:12,1.7,13,1.8,12,1.9,15
2017/8/8 1:13,1.7,14,1.7,12,1.4,15
2017/8/8 1:14,1.4,14,1.6,12,1.4,16
2017/8/8 1:15,1.3,14,1.4,12,1.5,11
2017/8/8 1:16,1.2,14,1.3,12,1.8,12
2017/8/8 1:17,1.1,14,1.2,12,1.6,12
2017/8/8 1:18,1.1,14,1.1,12,1.9,12
2017/8/8 1:19,1.2,14,1.2,12,2.1,13
2017/8/8 1:20,1.3,13,1.3,13,2.2,14
2017/8/8 1:21,1.5,13,1.5,13,3.5,15
2017/8/8 1:22,1.5,13,1.5,13,3.1,15
2017/8/8 1:23,1.6,13,1.6,14,1.9,13
2017/8/8 1:24,1.7,13,1.7,13,2.2,12
2017/8/8 1:25,1.7,13,1.7,13,2.4,13
2017/8/8 1:26,1.7,13,1.8,13,2.6,13
2017/8/8 1:27,1.8,13,1.8,13,2.2,13
2017/8/8 1:28,1.8,13,1.8,13,2.2,13
2017/8/8 1:29,1.8,13,1.8,13,2.6,14
2017/8/8 1:30,1.8,13,1.8,13,2.9,16
2017/8/8 1:31,1.7,13,1.7,13,3,15
2017/8/8 1:32,1.6,14,1.7,13,1.8,16
2017/8/8 1:33,1.6,14,1.6,13,1.6,13
2017/8/8 1:34,1.6,14,1.6,13,3.2,11
2017/8/8 1:35,1.7,14,1.7,13,3.7,12
2017/8/8 1:36,1.8,14,1.8,13,3.3,12
2017/8/8 1:37,1.7,14,1.8,13,2.4,12
2017/8/8 1:38,1.8,13,1.8,13,3.6,13
2017/8/8 1:39,2,13,2,13,5.1,14
2017/8/8 1:40,2.1,13,2.1,13,4.3,13
2017/8/8 1:41,2.1,13,2.1,13,2.4,14
2017/8/8 1:42,2,13,2,13,1.8,10
2017/8/8 1:43,2,13,2,13,1.9,15
2017/8/8 1:44,2,13,2,13,3.2,15
2017/8/8 1:45,1.8,13,2,13,1.8,15
2017/8/8 1:46,1.6,13,1.8,13,0.8,1
2017/8/8 1:47,1.5,13,1.6,13,1.4,16
2017/8/8 1:48,1.3,13,1.5,13,1.4,15
2017/8/8 1:49,1.1,13,1.3,13,2.4,12
2017/8/8 1:50,1.1,13,1.1,13,3.5,13
2017/8/8 1:51,1.1,13,1.1,13,2.7,11
2017/8/8 1:52,1.2,13,1.2,13,3.2,9
2017/8/8 1:53,1.4,12,1.4,13,5,9
2017/8/8 1:54,1.4,12,1.4,13,3.2,10
2017/8/8 1:55,1.6,12,1.6,13,3.9,10
2017/8/8 1:56,1.8,12,1.8,12,3.6,13
2017/8/8 1:57,1.9,11,1.9,11,3.7,10
2017/8/8 1:58,2.1,12,2.1,12,3.5,15
2017/8/8 1:59,2.2,12,2.2,12,3.3,13
2017/8/8 2:00,2.2,12,2.2,12,3.8,12
2017/8/8 2:01,2.2,12,2.2,12,2.7,10
2017/8/8 2:02,2.5,12,2.5,12,7,9
2017/8/8 2:03,2.6,12,2.6,12,5.8,10
2017/8/8 2:04,2.8,12,2.8,12,5.1,11
2017/8/8 2:05,2.8,12,2.8,12,5.4,10
2017/8/8 2:06,2.9,11,2.9,12,6.4,10
2017/8/8 2:07,3,12,3,11,4.7,12
2017/8/8 2:08,2.8,11,3,11,1.8,12
2017/8/8 2:09,2.7,11,2.8,11,2.2,12
2017/8/8 2:10,2.5,11,2.7,11,0.9,11
2017/8/8 2:11,2.4,11,2.4,11,3.5,10
2017/8/8 2:12,2.3,11,2.4,11,5.7,11
2017/8/8 2:13,2.2,11,2.3,11,6,10
2017/8/8 2:14,2,11,2.2,11,3.7,9
2017/8/8 2:15,2,11,2,11,4.9,12
2017/8/8 2:16,1.9,11,1.9,11,3.9,10
2017/8/8 2:17,1.9,11,1.9,12,5,11
2017/8/8 2:18,1.9,11,1.9,11,3.7,12
2017/8/8 2:19,2.1,11,2.1,11,7.1,10
2017/8/8 2:20,2.5,11,2.5,11,6.4,10
2017/8/8 2:21,2.7,11,2.7,11,4.5,10
2017/8/8 2:22,2.5,11,2.7,11,3.3,11
2017/8/8 2:23,2.4,11,2.5,11,2.7,15
2017/8/8 2:24,2.5,11,2.5,11,6.1,10
2017/8/8 2:25,2.7,11,2.7,11,7.6,9
2017/8/8 2:26,3,11,3,11,7.4,10
2017/8/8 2:27,2.8,11,2.9,11,3.5,10
2017/8/8 2:28,2.7,11,2.7,11,2,10
2017/8/8 2:29,2.6,11,2.8,11,2.6,10
2017/8/8 2:30,2.4,11,2.6,11,4.1,10
2017/8/8 2:31,2.3,11,2.4,11,4.7,11
2017/8/8 2:32,2.4,11,2.4,11,4.5,11
2017/8/8 2:33,2.4,11,2.4,11,3.2,12
2017/8/8 2:34,2.4,12,2.4,11,4.4,15
2017/8/8 2:35,2.1,12,2.4,11,3.5,11
2017/8/8 2:36,1.9,12,2.1,11,3.6,5
2017/8/8 2:37,2,11,2,11,3.8,9
2017/8/8 2:38,2,11,2,11,2.5,13
2017/8/8 2:39,1.9,11,2,11,2.2,8
2017/8/8 2:40,1.7,11,1.8,11,2.1,11
2017/8/8 2:41,1.7,11,1.8,11,2.2,9
2017/8/8 2:42,1.5,10,1.6,11,2.2,5
2017/8/8 2:43,1.4,9,1.5,11,2.1,5
2017/8/8 2:44,1.3,8,1.4,12,3.1,16
2017/8/8 2:45,1.3,7,1.4,12,4.4,12
2017/8/8 2:46,1.4,6,1.4,11,6.7,8
2017/8/8 2:47,1.5,16,1.5,11,3.2,16
2017/8/8 2:48,1.6,16,1.6,11,5,15
2017/8/8 2:49,1.8,16,1.8,11,5.2,15
2017/8/8 2:50,2.1,16,2.1,16,6.5,16
2017/8/8 2:51,2.2,16,2.2,16,6,16
2017/8/8 2:52,2.4,16,2.4,16,6.7,1
2017/8/8 2:53,3.1,16,3.1,16,11.4,16
2017/8/8 2:54,3.4,16,3.5,16,12.5,1
2017/8/8 2:55,3.6,16,3.6,16,11.5,8
2017/8/8 2:56,3.8,16,3.8,16,9.4,8
2017/8/8 2:57,3.7,1,3.8,16,2.2,2
2017/8/8 2:58,3.6,16,3.6,16,4.9,14
2017/8/8 2:59,3.6,1,3.6,16,4.2,7
2017/8/8 3:00,3.5,1,3.5,16,6.7,1
2017/8/8 3:01,3.5,1,3.5,16,5.4,1
2017/8/8 3:02,3.9,16,3.9,16,13.9,15
2017/8/8 3:03,3.6,15,3.9,16,7.8,13
2017/8/8 3:04,3.3,14,3.6,16,5.1,13
2017/8/8 3:05,3.2,14,3.4,16,4.9,3
2017/8/8 3:06,3,14,3.2,16,4.1,6
2017/8/8 3:07,3.4,15,3.4,16,5.6,14
2017/8/8 3:08,3.7,15,3.7,16,7.8,14
2017/8/8 3:09,3.7,15,3.7,16,7.7,9
2017/8/8 3:10,3.6,14,3.8,16,7.5,11
2017/8/8 3:11,3.5,13,3.6,16,1.8,13
2017/8/8 3:12,3,12,3.5,16,2.7,13
2017/8/8 3:13,2.9,12,2.9,15,4.1,12
2017/8/8 3:14,2.8,12,2.8,15,3.5,10
2017/8/8 3:15,2.6,12,2.8,15,3.5,10
2017/8/8 3:16,2.5,12,2.6,15,3.7,8
2017/8/8 3:17,2.2,11,2.5,15,3.2,10
2017/8/8 3:18,1.8,11,2.2,15,2.7,10
2017/8/8 3:19,1.7,11,1.8,15,1.6,16
2017/8/8 3:20,1.6,12,1.7,14,3.2,15
2017/8/8 3:21,1.7,12,1.7,13,2.6,16
2017/8/8 3:22,1.6,13,1.7,12,1.3,1
2017/8/8 3:23,1.3,14,1.6,12,1.3,3
2017/8/8 3:24,1.3,15,1.3,12,3.7,9
2017/8/8 3:25,1.4,16,1.4,12,4.1,8
2017/8/8 3:26,1.3,16,1.4,12,1.1,8
2017/8/8 3:27,1.3,2,1.3,11,2.5,8
2017/8/8 3:28,1.4,4,1.4,11,3.3,10
2017/8/8 3:29,1.4,6,1.5,11,3.7,8
2017/8/8 3:30,1.3,7,1.4,12,2,9
2017/8/8 3:31,1.3,7,1.3,12,3.8,16
2017/8/8 3:32,1.3,7,1.3,13,2.9,5
2017/8/8 3:33,1.4,8,1.4,6,3.1,9
2017/8/8 3:34,1.5,8,1.5,6,5.6,3
2017/8/8 3:35,1.8,7,1.8,7,9.2,1
2017/8/8 3:36,2.1,6,2.1,6,7.8,15
2017/8/8 3:37,2.3,5,2.3,5,7.2,15
2017/8/8 3:38,2.3,5,2.3,5,4.1,8
2017/8/8 3:39,2.3,5,2.3,5,3.7,9
2017/8/8 3:40,2.5,6,2.5,6,5.1,7
2017/8/8 3:41,2.7,7,2.7,7,6.3,8
2017/8/8 3:42,2.7,7,2.7,7,4.2,10
2017/8/8 3:43,2.8,8,2.8,7,2.7,9
2017/8/8 3:44,2.8,8,2.9,8,4.5,8
2017/8/8 3:45,2.5,8,2.8,8,3.2,6
2017/8/8 3:46,2.2,8,2.5,8,3.2,10
2017/8/8 3:47,2.2,9,2.2,8,4.7,12
2017/8/8 3:48,2.4,9,2.4,8,5.8,10
2017/8/8 3:49,2.4,9,2.4,8,3.1,10
2017/8/8 3:50,2.4,9,2.5,8,3.5,11
2017/8/8 3:51,2.3,10,2.4,8,4.9,15
2017/8/8 3:52,2.3,10,2.3,8,4.4,9
2017/8/8 3:53,2.3,9,2.3,8,4.5,8
2017/8/8 3:54,2.3,10,2.3,8,4.8,7
2017/8/8 3:55,2.6,10,2.6,10,7.5,8
2017/8/8 3:56,2.9,10,2.9,10,8.5,9
2017/8/8 3:57,2.9,10,3,10,6.9,9
2017/8/8 3:58,2.9,10,2.9,10,5.1,13
2017/8/8 3:59,2.9,10,2.9,10,3.6,13
2017/8/8 4:00,3.1,10,3.1,10,7,10
2017/8/8 4:01,3,10,3.1,10,5,11
2017/8/8 4:02,3.1,10,3.1,10,3.9,9
2017/8/8 4:03,3.1,10,3.2,10,4.2,12
2017/8/8 4:04,3,10,3.1,10,3.5,13
2017/8/8 4:05,3,11,3.1,10,5.5,10
2017/8/8 4:06,2.6,10,2.9,10,3.2,12
2017/8/8 4:07,2.5,11,2.6,10,3.3,10
2017/8/8 4:08,2.3,11,2.5,10,2.6,14
2017/8/8 4:09,2.3,11,2.3,10,2.6,14
2017/8/8 4:10,2,11,2.3,10,2.9,12
2017/8/8 4:11,1.9,11,2,10,2.5,7
2017/8/8 4:12,1.9,11,1.9,10,3.1,8
2017/8/8 4:13,1.9,10,1.9,10,2.5,8
2017/8/8 4:14,1.7,10,1.8,10,0.9,9
2017/8/8 4:15,1.3,11,1.7,11,0.5,12
2017/8/8 4:16,1.2,11,1.3,10,0.8,1
2017/8/8 4:17,1,12,1.2,11,1,1
2017/8/8 4:18,1,9,1,11,1.3,9
2017/8/8 4:19,1,8,1,11,2.5,10
2017/8/8 4:20,1,8,1,11,3,7
2017/8/8 4:21,1.1,8,1.1,11,5.1,8
2017/8/8 4:22,1.2,8,1.2,11,4.7,9
2017/8/8 4:23,1.2,8,1.2,10,4.4,9
2017/8/8 4:24,1.3,8,1.3,10,1.8,9
2017/8/8 4:25,1.4,7,1.4,8,2,10
2017/8/8 4:26,1.5,8,1.5,8,2.7,1
2017/8/8 4:27,1.6,8,1.6,8,2.1,13
2017/8/8 4:28,1.7,9,1.7,9,2.5,15
2017/8/8 4:29,1.7,9,1.7,9,2.6,2
2017/8/8 4:30,1.8,9,1.8,9,3.3,16
2017/8/8 4:31,1.7,16,1.8,9,4.2,1
2017/8/8 4:32,1.6,16,1.7,9,2.4,16
2017/8/8 4:33,1.5,16,1.6,9,2.1,15
2017/8/8 4:34,1.5,16,1.5,9,2,16
2017/8/8 4:35,1.5,16,1.5,9,1,14
2017/8/8 4:36,1.5,16,1.5,9,3.3,8
2017/8/8 4:37,1.5,16,1.5,9,3.1,9
2017/8/8 4:38,1.7,2,1.7,9,4.5,7
2017/8/8 4:39,1.8,2,1.8,9,4.9,8
2017/8/8 4:40,1.7,10,1.8,9,2.6,10
2017/8/8 4:41,1.5,10,1.7,2,0.9,10
2017/8/8 4:42,1.5,8,1.5,2,2.5,8
2017/8/8 4:43,1.6,8,1.6,2,4.5,10
2017/8/8 4:44,1.6,9,1.6,2,2.5,11
2017/8/8 4:45,1.6,8,1.6,2,1.3,5
2017/8/8 4:46,1.6,9,1.7,2,2.7,16
2017/8/8 4:47,1.4,8,1.6,2,1.6,15
2017/8/8 4:48,1.3,10,1.4,2,2.9,16
2017/8/8 4:49,1.3,14,1.3,2,4.1,1
2017/8/8 4:50,1.3,3,1.3,10,3.1,6
2017/8/8 4:51,1.5,4,1.5,8,3.5,6
2017/8/8 4:52,1.6,5,1.6,8,3.2,9
2017/8/8 4:53,1.4,3,1.6,8,1,9
2017/8/8 4:54,1.3,3,1.3,8,1.1,11
2017/8/8 4:55,1.4,3,1.4,8,1.6,4
2017/8/8 4:56,1.6,4,1.6,9,4.5,4
2017/8/8 4:57,1.9,5,1.9,5,5.6,5
2017/8/8 4:58,2,5,2,5,6.2,6
2017/8/8 4:59,2,6,2,5,5.2,6
2017/8/8 5:00,2,5,2,5,3.6,5
2017/8/8 5:01,1.9,5,2,5,1.9,4
2017/8/8 5:02,1.9,4,1.9,5,3.8,6
2017/8/8 5:03,2.2,4,2.2,4,3.9,5
2017/8/8 5:04,2.4,5,2.4,5,4.2,4
2017/8/8 5:05,2.6,5,2.6,5,4.4,7
2017/8/8 5:06,2.5,5,2.6,5,3.6,5
2017/8/8 5:07,2.4,5,2.5,5,3.9,6
2017/8/8 5:08,2.5,5,2.5,5,6.1,7
2017/8/8 5:09,2.5,6,2.5,5,5.6,8
2017/8/8 5:10,2.4,6,2.5,5,4.4,9
2017/8/8 5:11,2.6,6,2.6,5,4.9,8
2017/8/8 5:12,2.7,7,2.7,7,4.9,7
2017/8/8 5:13,2.4,7,2.6,7,1.3,15
2017/8/8 5:14,2.3,7,2.4,7,3.5,3
2017/8/8 5:15,2.1,7,2.3,7,1.6,4
2017/8/8 5:16,1.9,7,2.1,7,1,1
2017/8/8 5:17,1.9,6,1.9,7,4.4,3
2017/8/8 5:18,1.7,5,1.9,7,4.7,3
2017/8/8 5:19,1.8,5,1.8,7,4.4,5
2017/8/8 5:20,1.9,5,1.9,7,6.7,6
2017/8/8 5:21,2.1,4,2.1,7,7,8
2017/8/8 5:22,1.9,4,2.1,7,2.2,6
2017/8/8 5:23,2,4,2,7,2.4,4
2017/8/8 5:24,2,4,2,7,2.9,5
2017/8/8 5:25,2.1,5,2.1,7,3.6,8
2017/8/8 5:26,2.2,5,2.2,5,3.2,7
2017/8/8 5:27,2.1,6,2.2,5,2,7
2017/8/8 5:28,2.2,6,2.2,5,4.4,10
2017/8/8 5:29,2,7,2.2,5,2.7,10
2017/8/8 5:30,1.9,7,2,5,1.9,8
2017/8/8 5:31,1.7,7,1.8,5,3.2,6
2017/8/8 5:32,1.9,7,1.9,5,4.5,6
2017/8/8 5:33,1.9,7,1.9,5,2.7,3
2017/8/8 5:34,2,6,2,5,2.9,2
2017/8/8 5:35,2,6,2,5,3.5,10
2017/8/8 5:36,1.9,7,2,5,3.5,9
2017/8/8 5:37,1.9,7,1.9,6,2.7,9
2017/8/8 5:38,1.9,6,1.9,6,3.6,8
2017/8/8 5:39,1.9,6,1.9,7,2.1,8
2017/8/8 5:40,1.9,7,1.9,7,2.1,10
2017/8/8 5:41,1.9,7,2,7,5.6,10
2017/8/8 5:42,1.8,8,1.9,7,3.2,12
2017/8/8 5:43,1.7,9,1.8,7,2.6,12
2017/8/8 5:44,1.6,9,1.7,6,2,7
2017/8/8 5:45,1.5,9,1.6,6,1.9,3
2017/8/8 5:46,1.5,7,1.5,7,2.5,3
2017/8/8 5:47,1.7,7,1.7,7,3.5,5
2017/8/8 5:48,1.6,5,1.7,7,3.6,3
2017/8/8 5:49,1.7,4,1.7,7,2.5,4
2017/8/8 5:50,1.6,4,1.7,7,1.9,2
2017/8/8 5:51,1.4,4,1.6,7,1.3,5
2017/8/8 5:52,1.5,5,1.5,8,3,6
2017/8/8 5:53,1.5,5,1.5,9,3.3,8
2017/8/8 5:54,1.6,5,1.6,7,3.5,12
2017/8/8 5:55,1.7,5,1.7,7,3.5,11
2017/8/8 5:56,1.6,6,1.7,7,2.4,5
2017/8/8 5:57,1.4,6,1.6,6,3.2,4
2017/8/8 5:58,1.2,7,1.4,5,1,12
2017/8/8 5:59,1.2,10,1.2,4,3.1,9
2017/8/8 6:00,1.3,10,1.3,5,3,10
2017/8/8 6:01,1.4,11,1.4,5,4.9,10
2017/8/8 6:02,1.5,12,1.5,5,5.7,14
2017/8/8 6:03,1.5,12,1.5,5,2.4,11
2017/8/8 6:04,1.3,12,1.4,5,1.6,1
2017/8/8 6:05,1.3,13,1.3,5,4.3,1
2017/8/8 6:06,1.5,13,1.5,6,4.9,3
2017/8/8 6:07,1.7,13,1.7,13,6.7,15
2017/8/8 6:08,1.8,13,1.8,13,4.8,15
2017/8/8 6:09,2,14,2.1,14,7.5,15
2017/8/8 6:10,2.2,14,2.2,14,5,16
2017/8/8 6:11,2.2,15,2.2,14,6.2,15
2017/8/8 6:12,2,15,2.2,14,2.9,16
2017/8/8 6:13,2,15,2,14,4.1,8
2017/8/8 6:14,2.2,15,2.2,14,4.4,11
2017/8/8 6:15,2.4,14,2.4,15,5,10
2017/8/8 6:16,2.4,13,2.4,15,4.3,10
2017/8/8 6:17,2.2,13,2.4,15,3.5,7
2017/8/8 6:18,2.3,11,2.3,15,3.1,9
2017/8/8 6:19,2.1,11,2.3,15,5.1,14
2017/8/8 6:20,2.1,11,2.1,15,5.4,14
2017/8/8 6:21,2.1,11,2.2,15,4.5,15
2017/8/8 6:22,2.4,11,2.4,15,4.5,16
2017/8/8 6:23,2.3,12,2.4,15,2,16
2017/8/8 6:24,2.2,12,2.3,15,3,6
2017/8/8 6:25,2,12,2.2,14,2.1,6
2017/8/8 6:26,1.8,14,1.9,13,1.3,11
2017/8/8 6:27,1.7,14,1.8,11,2.9,9
2017/8/8 6:28,1.7,1,1.7,11,3,2
2017/8/8 6:29,1.8,2,1.8,11,6.7,7
2017/8/8 6:30,1.8,4,1.8,11,5.8,7
2017/8/8 6:31,1.8,5,1.9,11,5.8,8
2017/8/8 6:32,1.8,7,1.8,12,4.1,11
2017/8/8 6:33,2,7,2,12,7.7,16
2017/8/8 6:34,2.5,8,2.5,8,10.1,15
2017/8/8 6:35,2.9,11,2.9,10,9.7,15
2017/8/8 6:36,3.1,8,3.1,8,4.2,3
2017/8/8 6:37,3.1,9,3.1,8,4.7,11
2017/8/8 6:38,3.3,10,3.3,10,4.3,10
2017/8/8 6:39,3.2,11,3.3,10,3.5,9
2017/8/8 6:40,3.1,11,3.2,10,3.2,10
2017/8/8 6:41,2.9,11,3,10,2,9
2017/8/8 6:42,2.7,10,2.9,10,0.8,6
2017/8/8 6:43,2.5,9,2.7,10,2,7
2017/8/8 6:44,2,9,2.5,10,1.9,7
2017/8/8 6:45,1.6,8,1.9,10,2.2,8
2017/8/8 6:46,1.5,8,1.6,10,3.6,8
2017/8/8 6:47,1.4,8,1.5,10,2.6,10
2017/8/8 6:48,1.2,8,1.4,10,1.1,2
2017/8/8 6:49,1,8,1.2,11,0.9,5
2017/8/8 6:50,0.9,8,1,11,0.8,10
2017/8/8 6:51,0.9,8,0.9,11,1.9,4
2017/8/8 6:52,0.9,8,0.9,10,1.9,4
2017/8/8 6:53,0.9,8,0.9,9,1.5,8
2017/8/8 6:54,1.1,8,1.1,9,4.5,8
2017/8/8 6:55,1.3,8,1.3,8,3.8,9
2017/8/8 6:56,1.4,8,1.4,8,4.2,6
2017/8/8 6:57,1.6,8,1.6,8,4.8,8
2017/8/8 6:58,1.8,8,1.8,8,4.4,7
2017/8/8 6:59,2,8,2,8,3.9,8
2017/8/8 7:00,2.3,8,2.3,8,5.7,9
2017/8/8 7:01,2.6,8,2.6,8,5.2,9
2017/8/8 7:02,3,8,3,8,7.7,9
2017/8/8 7:03,3.3,8,3.3,8,7.2,9
2017/8/8 7:04,3.2,8,3.3,8,5.5,8
2017/8/8 7:05,3.1,8,3.2,8,3.5,9
2017/8/8 7:06,3.2,9,3.2,8,5.8,9
2017/8/8 7:07,3.2,9,3.2,8,5,9
2017/8/8 7:08,3.1,9,3.2,8,3.9,8
2017/8/8 7:09,3.1,9,3.1,8,3.9,8
2017/8/8 7:10,2.8,9,3,8,1.4,8
2017/8/8 7:11,2.5,9,2.8,8,1.1,9
2017/8/8 7:12,2.2,9,2.4,8,4.1,10
2017/8/8 7:13,2.1,9,2.2,8,4.2,10
2017/8/8 7:14,2.1,9,2.2,8,3.1,10
2017/8/8 7:15,2,9,2.1,8,2.5,11
2017/8/8 7:16,1.8,9,2,9,3.8,9
2017/8/8 7:17,1.6,10,1.8,9,3.2,9
2017/8/8 7:18,1.5,9,1.6,9,2,9
2017/8/8 7:19,1.4,9,1.5,9,1,8
2017/8/8 7:20,1.4,10,1.4,9,1.9,13
2017/8/8 7:21,1.6,10,1.6,9,4.5,11
2017/8/8 7:22,1.8,10,1.8,9,5.6,11
2017/8/8 7:23,1.6,10,1.8,9,3.1,8
2017/8/8 7:24,1.4,10,1.6,9,1.6,7
2017/8/8 7:25,1.4,10,1.4,9,0.8,1
2017/8/8 7:26,1.4,10,1.4,10,2.9,9
2017/8/8 7:27,1.5,10,1.5,10,3.3,10
2017/8/8 7:28,1.5,10,1.5,10,2.7,13
2017/8/8 7:29,1.6,11,1.6,10,2.2,14
2017/8/8 7:30,1.7,10,1.7,10,4.8,9
2017/8/8 7:31,1.6,10,1.7,10,3.5,10
2017/8/8 7:32,1.4,10,1.6,10,2.2,10
2017/8/8 7:33,1.3,10,1.3,10,0.6,13
2017/8/8 7:34,1.3,10,1.3,10,3,9
2017/8/8 7:35,1.7,10,1.7,10,6.5,10
2017/8/8 7:36,1.9,10,1.9,10,4.8,10
2017/8/8 7:37,2,10,2,10,4.9,11
2017/8/8 7:38,2.1,10,2.1,10,4.7,9
2017/8/8 7:39,2.2,10,2.2,10,4.4,10
2017/8/8 7:40,2.3,10,2.3,10,6.1,10
2017/8/8 7:41,2.4,10,2.4,10,4.9,10
2017/8/8 7:42,2.5,10,2.5,10,4.2,9
2017/8/8 7:43,2.7,10,2.7,10,3.7,9
2017/8/8 7:44,2.6,10,2.7,10,2.2,1
2017/8/8 7:45,2.2,10,2.6,10,1.5,2
2017/8/8 7:46,2,11,2.2,10,2.1,3
2017/8/8 7:47,1.9,11,2,10,3.3,12
2017/8/8 7:48,1.7,12,1.9,10,3.2,12
2017/8/8 7:49,1.5,13,1.7,10,1.1,15
2017/8/8 7:50,1.4,14,1.5,10,2.5,13
2017/8/8 7:51,1.3,14,1.4,10,2.5,13
2017/8/8 7:52,1.1,14,1.2,10,1.9,9
2017/8/8 7:53,1.1,14,1.1,10,2.5,10
2017/8/8 7:54,1.1,13,1.1,10,1.9,9
2017/8/8 7:55,1.1,12,1.2,11,1.6,9
2017/8/8 7:56,1,12,1.1,11,0.5,16
2017/8/8 7:57,1,13,1,11,1.1,14
2017/8/8 7:58,0.9,13,0.9,12,0.8,13
2017/8/8 7:59,0.8,12,0.9,13,0.4,2
2017/8/8 8:00,0.8,11,0.8,14,2,7
2017/8/8 8:01,0.8,11,0.8,14,2.5,10
2017/8/8 8:02,0.8,10,0.8,13,2.4,9
2017/8/8 8:03,0.8,10,0.8,13,3,10
2017/8/8 8:04,0.8,11,0.8,13,2.5,10
2017/8/8 8:05,0.7,11,0.8,12,1.1,8
2017/8/8 8:06,0.8,10,0.8,12,1.6,10
2017/8/8 8:07,0.8,10,0.8,13,1.4,10
2017/8/8 8:08,0.8,10,0.8,13,1.3,11
2017/8/8 8:09,0.9,10,0.9,10,2.9,14
2017/8/8 8:10,1.1,10,1.1,10,4.5,13
2017/8/8 8:11,1.1,11,1.1,10,3.8,12
2017/8/8 8:12,1.1,11,1.1,10,2,10
2017/8/8 8:13,1.1,10,1.1,10,3.7,7
2017/8/8 8:14,1.2,10,1.2,10,4.2,11
2017/8/8 8:15,1.7,11,1.7,11,6.7,10
2017/8/8 8:16,2,11,2,11,6.8,10
2017/8/8 8:17,2.2,10,2.2,10,5.1,10
2017/8/8 8:18,2.5,10,2.5,10,5.4,9
2017/8/8 8:19,2.6,10,2.6,10,5.5,9
2017/8/8 8:20,2.6,10,2.7,10,3.9,8
2017/8/8 8:21,2.5,9,2.6,10,1.4,8
2017/8/8 8:22,2.7,9,2.7,10,4.9,8
2017/8/8 8:23,2.7,10,2.7,10,4.8,9
2017/8/8 8:24,2.7,10,2.7,10,4.9,11
2017/8/8 8:25,2.7,10,2.7,10,5.1,11
2017/8/8 8:26,2.6,10,2.6,10,6.8,10
2017/8/8 8:27,2.8,10,2.8,10,7,10
2017/8/8 8:28,3,10,3,10,7.2,10
2017/8/8 8:29,3,10,3.1,10,5,11
2017/8/8 8:30,3,10,3,10,5.5,9
2017/8/8 8:31,3.2,10,3.2,10,6.1,9
2017/8/8 8:32,3.3,10,3.4,10,6.4,10
2017/8/8 8:33,3.4,10,3.4,10,4.7,10
2017/8/8 8:34,3.4,10,3.4,10,4.3,9
2017/8/8 8:35,3.4,10,3.4,10,6.9,9
2017/8/8 8:36,3.3,10,3.4,10,5.5,8
2017/8/8 8:37,3.3,10,3.3,10,6.5,9
2017/8/8 8:38,3.1,10,3.3,10,6.3,9
2017/8/8 8:39,3.1,10,3.1,10,5.6,11
2017/8/8 8:40,3.4,9,3.4,10,8.4,10
2017/8/8 8:41,3.6,10,3.6,10,7.4,11
2017/8/8 8:42,3.6,10,3.7,10,4.3,11
2017/8/8 8:43,3.6,10,3.7,10,4.4,10
2017/8/8 8:44,3.6,10,3.7,10,3.6,10
2017/8/8 8:45,3.4,10,3.6,10,4.7,8
2017/8/8 8:46,3.3,10,3.4,10,4.5,11
2017/8/8 8:47,3.1,10,3.3,10,5.5,11
2017/8/8 8:48,3.1,10,3.1,10,5.1,10
2017/8/8 8:49,3.2,10,3.2,10,5,10
2017/8/8 8:50,2.8,10,3.1,10,4.4,8
2017/8/8 8:51,2.5,10,2.8,10,4.2,8
2017/8/8 8:52,2.4,10,2.5,10,4.1,10
2017/8/8 8:53,2.3,10,2.4,10,5.7,10
2017/8/8 8:54,2.4,10,2.4,10,6,10
2017/8/8 8:55,2.5,10,2.5,10,5.4,10
2017/8/8 8:56,2.8,10,2.8,10,6.7,10
2017/8/8 8:57,2.8,10,2.8,10,7.2,9
2017/8/8 8:58,2.8,10,2.8,10,5.4,11
2017/8/8 8:59,2.8,10,2.8,10,4.9,10
2017/8/8 9:00,2.8,10,2.8,10,5.4,10
2017/8/8 9:01,3.2,10,3.2,10,7.1,11
2017/8/8 9:02,3.3,11,3.3,11,6.3,10
2017/8/8 9:03,3.3,10,3.3,11,5.2,10
2017/8/8 9:04,3.2,10,3.3,11,5.4,10
2017/8/8 9:05,3.2,10,3.2,11,6.5,10
2017/8/8 9:06,3.1,11,3.3,11,7.2,8
2017/8/8 9:07,3.2,11,3.2,11,5.7,9
2017/8/8 9:08,3,10,3.2,11,4.8,9
2017/8/8 9:09,3.1,10,3.1,11,6.3,10
2017/8/8 9:10,3.2,10,3.2,11,6.8,10
2017/8/8 9:11,3.1,10,3.2,11,7.7,11
2017/8/8 9:12,3.2,10,3.2,11,8.3,10
2017/8/8 9:13,3.4,10,3.4,10,6.9,10
2017/8/8 9:14,3.5,10,3.5,10,6.7,11
2017/8/8 9:15,3.6,10,3.6,10,6.7,10
2017/8/8 9:16,3.7,10,3.7,10,7.6,9
2017/8/8 9:17,4.2,10,4.2,10,11,10
2017/8/8 9:18,4.5,10,4.5,10,10.1,10
2017/8/8 9:19,4.5,10,4.6,10,5.6,11
2017/8/8 9:20,4.7,10,4.7,10,9.3,10
2017/8/8 9:21,4.9,10,5,10,11.3,10
2017/8/8 9:22,4.9,10,5,10,7,9
2017/8/8 9:23,5.2,10,5.2,10,10.2,10
2017/8/8 9:24,5.3,10,5.3,10,8.4,11
2017/8/8 9:25,5.4,10,5.4,10,8.9,10
2017/8/8 9:26,5.3,10,5.4,10,7.9,10
2017/8/8 9:27,5,10,5.4,10,6.5,9
2017/8/8 9:28,5,10,5,10,6.8,10
2017/8/8 9:29,5,10,5,10,9.1,10
2017/8/8 9:30,5,10,5.1,10,7.2,9
2017/8/8 9:31,4.9,10,5,10,7.5,10
2017/8/8 9:32,4.9,10,5,10,9.4,11
2017/8/8 9:33,4.9,10,4.9,10,9.7,10
2017/8/8 9:34,4.9,10,4.9,10,7.4,11
2017/8/8 9:35,4.9,11,5,10,6.9,10
2017/8/8 9:36,5,10,5,10,8.7,11
2017/8/8 9:37,5,10,5,10,7.7,11
2017/8/8 9:38,4.8,10,5,10,4.9,10
2017/8/8 9:39,4.7,10,4.8,10,6,9
2017/8/8 9:40,4.5,10,4.7,10,6.2,9
2017/8/8 9:41,4.3,10,4.5,10,7.1,11
2017/8/8 9:42,4.1,10,4.3,11,6.7,10
2017/8/8 9:43,3.7,10,4.1,11,5.2,10
2017/8/8 9:44,3.8,10,3.8,11,6.5,8
2017/8/8 9:45,3.7,10,3.8,10,6.8,10
2017/8/8 9:46,3.6,10,3.7,10,6.2,10
2017/8/8 9:47,3.6,10,3.6,10,6.8,10
2017/8/8 9:48,3.7,10,3.7,10,4.7,10
2017/8/8 9:49,3.7,10,3.7,10,6.2,10
2017/8/8 9:50,3.7,10,3.8,10,6.3,11
2017/8/8 9:51,3.7,10,3.8,10,6.7,10
2017/8/8 9:52,3.8,10,3.8,10,6.8,10
2017/8/8 9:53,4.1,10,4.1,10,7.8,9
2017/8/8 9:54,3.9,10,4.1,10,7.8,9
2017/8/8 9:55,3.7,10,3.9,10,6.7,9
2017/8/8 9:56,3.9,10,3.9,10,7.4,10
2017/8/8 9:57,3.8,10,3.9,10,8.6,10
2017/8/8 9:58,3.8,10,3.9,10,7.2,10
2017/8/8 9:59,3.8,10,3.9,10,6.8,11
2017/8/8 10:00,3.7,10,3.8,10,5.4,10
2017/8/8 10:01,3.7,10,3.7,10,8.2,10
2017/8/8 10:02,3.8,10,3.8,10,7.9,10
2017/8/8 10:03,3.4,10,3.8,10,4.4,10
2017/8/8 10:04,3.5,10,3.5,10,5.8,10
2017/8/8 10:05,3.5,10,3.5,10,8.1,9
2017/8/8 10:06,3.4,10,3.5,10,6.1,9
2017/8/8 10:07,3.3,10,3.4,10,5,9
2017/8/8 10:08,3.3,10,3.4,10,6.1,9
2017/8/8 10:09,3.3,10,3.3,10,4.7,10
2017/8/8 10:10,3.4,10,3.4,10,7.2,10
2017/8/8 10:11,3.5,10,3.5,10,7.6,9
2017/8/8 10:12,3.5,10,3.5,10,7,9
2017/8/8 10:13,3.7,10,3.7,10,7,9
2017/8/8 10:14,3.8,10,3.8,10,7.6,9
2017/8/8 10:15,3.9,10,3.9,10,7.7,9
2017/8/8 10:16,3.8,9,3.9,10,4.9,11
2017/8/8 10:17,3.9,10,3.9,10,7.1,10
2017/8/8 10:18,4,10,4,10,8.9,10
2017/8/8 10:19,4,10,4.1,10,7,10
2017/8/8 10:20,3.8,10,4,10,3.8,10
2017/8/8 10:21,3.6,10,3.8,10,5.7,9
2017/8/8 10:22,3.4,10,3.6,10,5.1,9
2017/8/8 10:23,3.2,10,3.4,10,3.1,8
2017/8/8 10:24,2.9,10,3.2,10,3.6,11
2017/8/8 10:25,2.8,10,2.9,10,4.8,9
2017/8/8 10:26,2.9,10,2.9,10,6.2,10
2017/8/8 10:27,2.7,10,2.9,10,4.1,11
2017/8/8 10:28,2.7,10,2.8,10,6.2,9
2017/8/8 10:29,2.6,10,2.7,10,5.5,10
2017/8/8 10:30,2.7,10,2.7,10,6.5,12
2017/8/8 10:31,2.9,10,2.9,10,8.9,11
2017/8/8 10:32,3.2,10,3.2,10,8.9,9
2017/8/8 10:33,3.3,10,3.3,10,6.1,11
2017/8/8 10:34,3.8,10,3.8,10,9,9
2017/8/8 10:35,4,10,4,10,7.2,10
2017/8/8 10:36,3.9,10,4,10,6.5,10
2017/8/8 10:37,4.1,10,4.1,10,8.6,10
2017/8/8 10:38,4.2,10,4.2,10,6.9,10
2017/8/8 10:39,4.2,10,4.3,10,6.8,10
2017/8/8 10:40,4.4,10,4.4,10,9.7,9
2017/8/8 10:41,4.5,10,4.5,10,7,10
2017/8/8 10:42,4.4,10,4.5,10,7.2,10
2017/8/8 10:43,4.4,10,4.5,10,6.3,10
2017/8/8 10:44,4.3,10,4.4,10,6.8,9
2017/8/8 10:45,4.2,10,4.3,10,6,12
2017/8/8 10:46,4.2,10,4.2,10,5.2,9
2017/8/8 10:47,4,10,4.2,10,4.9,10
2017/8/8 10:48,3.9,10,4,10,6.1,10
2017/8/8 10:49,4,10,4,10,6.9,11
2017/8/8 10:50,4.1,10,4.2,10,7.2,10
2017/8/8 10:51,3.9,10,4,10,6.2,9
2017/8/8 10:52,3.8,10,3.9,10,7.8,9
2017/8/8 10:53,3.9,10,3.9,10,6.5,11
2017/8/8 10:54,3.7,10,3.8,10,5.2,8
2017/8/8 10:55,3.7,10,3.7,10,5.6,9
2017/8/8 10:56,3.7,10,3.7,10,6,10
2017/8/8 10:57,3.7,10,3.7,10,6.1,10
2017/8/8 10:58,3.4,10,3.6,10,3.2,9
2017/8/8 10:59,3.2,10,3.4,10,6.2,10
2017/8/8 11:00,3.1,10,3.2,10,7.1,9
2017/8/8 11:01,3.2,10,3.2,10,7,10
2017/8/8 11:02,3.4,10,3.4,10,7.9,11
2017/8/8 11:03,3.2,10,3.4,10,8.6,9
2017/8/8 11:04,3.3,10,3.3,10,5.8,8
2017/8/8 11:05,3.3,10,3.3,10,5,10
2017/8/8 11:06,3.2,10,3.3,10,6.5,9
2017/8/8 11:07,3.4,10,3.4,10,6.2,10
2017/8/8 11:08,3.5,10,3.5,10,7,11
2017/8/8 11:09,3.5,10,3.6,10,5,10
2017/8/8 11:10,3.3,10,3.5,10,5.1,8
2017/8/8 11:11,3.2,10,3.3,10,7.4,10
2017/8/8 11:12,3.1,10,3.2,10,7.6,10
2017/8/8 11:13,3,11,3.1,10,6.1,12
2017/8/8 11:14,2.8,11,2.9,10,3.3,10
2017/8/8 11:15,2.8,11,2.9,10,9.4,10
2017/8/8 11:16,2.9,11,2.9,10,11.3,10
2017/8/8 11:17,3.2,11,3.2,10,10.2,10
2017/8/8 11:18,3.2,11,3.3,10,7,11
2017/8/8 11:19,3.4,11,3.4,10,8.6,10
2017/8/8 11:20,3.7,11,3.7,11,7.5,9
2017/8/8 11:21,3.7,11,3.8,11,9.7,9
2017/8/8 11:22,3.8,10,3.8,11,9.3,10
2017/8/8 11:23,3.9,10,3.9,10,7.1,9
2017/8/8 11:24,4,10,4,10,8.2,8
2017/8/8 11:25,4.1,10,4.1,10,10.1,9
2017/8/8 11:26,4.3,10,4.4,10,9.7,9